Regional Weather Roundup
Issued by NWS Upton, NY

Current Version | Previous Version | Text Only | Print | Product List | Glossary Off
Versions: 1 2 3 4 5 6 7 8 9 10 11 12 13 14 15 16 17 18 19 20 21 22 23 24 25 26 27 28 29 30 31 32 33 34 35 36 37 38 39 40 41 42 43 44 45 46 47 48 49 50
438 ASUS41 KOKX 250809 RWROKX REGIONAL WEATHER ROUNDUP NATIONAL WEATHER SERVICE NEW YORK NY 400 AM EDT SUN JUN 25 2017 NOTE: "FAIR" INDICATES FEW OR NO CLOUDS BELOW 12,000 FEET WITH NO SIGNIFICANT WEATHER AND/OR OBSTRUCTIONS TO VISIBILITY. NYZ071-072-176-178-NJZ106-104-250900- NEW YORK CITY METRO AREA CITY SKY/WX TMP DP RH WIND PRES REMARKS Central Park CLEAR 71 59 65 CALM 29.95S Bronx Bot Gard N/A 70 57 64 CALM 29.94R LaGuardia APRT PTCLDY 72 60 66 N8 29.92R Kennedy INTL PTCLDY 72 60 66 N6 29.93R Breezy Point N/A 70 N/A N/A W3 N/A Newark/Liberty PTCLDY 72 57 59 NW7 29.92S Teterboro CLEAR 69 59 70 N3 29.91F $$ NYZ177-179-078>081-250900- LONG ISLAND NEW YORK CITY SKY/WX TMP DP RH WIND PRES REMARKS Jones Beach N/A 70 N/A N/A NW6 N/A Matinecock PT NOT AVBL Farmingdale NOT AVBL MacArthur/ISP PTCLDY 65 62 90 CALM 29.92R Shirley CLEAR 63 62 97 CALM 29.92S Mt Sinai Harb N/A N/A N/A N/A S1 N/A Westhampton CLEAR 57 54 89 N3 29.94R East Hampton FAIR 59 58 95 CALM 29.91S Montauk N/A 68 60 75 W3 29.92S $$ NYZ052-065-067-250900- HUDSON VALLEY CITY SKY/WX TMP DP RH WIND PRES REMARKS White Plains NOT AVBL Larchmont Harb N/A 70 N/A N/A N1 N/A Croton O-T Hud N/A 66 N/A N/A MISG N/A Newburgh CLEAR 61 61 100 CALM 29.95S Montgomery CLEAR 61 59 93 W3 29.93F Poughkeepsie MOCLDY 61 60 97 CALM 29.92S Albany CLEAR 61 53 75 W8 29.92S $$ NJZ001-105-106-008-010-013-015-019>022-104-250900- NEW JERSEY CITY SKY/WX TMP DP RH WIND PRES REMARKS Newark/Liberty PTCLDY 72 57 59 NW7 29.92S Teterboro CLEAR 69 59 70 N3 29.91F Caldwell CLEAR 67 59 75 CALM 29.94S Somerville CLEAR 62 61 96 CALM 29.93R Linden FAIR 70 57 63 CALM 29.94R Perth Amboy N/A 70 N/A N/A W3 N/A Sussex CLEAR 59 59 100 CALM 29.95S Andover N/A 60 58 92 CALM 29.96S Trenton CLEAR 68 60 75 CALM 29.94R Millville CLEAR 68 65 90 W5 29.94S Atlantic City CLEAR 71 61 70 NW8 29.93S Wrightstown CLEAR 67 62 84 CALM 29.91S Toms River CLEAR 63 60 90 CALM 29.94S Belmar CLEAR 65 62 90 W3 29.95R $$ PAZ047>061-062-071-250900- EASTERN PENNSYLVANIA CITY SKY/WX TMP DP RH WIND PRES REMARKS Philadelphia PTCLDY 73 60 63 NW6 29.94S Allentown CLEAR 63 58 83 CALM 29.96R Scranton CLEAR 58 57 97 CALM 29.97F $$ CTZ002-004>006-009-010-012-RIZ004-006-007-MAZ004-011-015-250900- SOUTHERN NEW ENGLAND IN CT CITY SKY/WX TMP DP RH WIND PRES REMARKS Bradley INTL PTCLDY 64 55 72 NW5 29.91S Hartford PTCLDY 64 61 90 SE3 29.91R Danbury CLEAR 60 59 96 SW3 29.95R Wtrbury/Oxford CLEAR 61 54 77 CALM 29.95R Bridgeport CLOUDY 71 59 65 N3 29.92R Meriden PTCLDY 61 59 93 CALM 29.92R New Haven NOT AVBL Chester PTSUNNY 66 59 77 NW3 29.92R Groton CLEAR 62 59 90 VRB3 29.90R Wilimantic MOCLDY 64 60 87 CALM 29.91R IN RI CITY SKY/WX TMP DP RH WIND PRES REMARKS Providence CLEAR 65 57 75 W6 29.89S Block Island CLEAR 66 58 75 NW6 29.91S Westerly CLEAR 64 59 83 CALM 29.91R IN MA CITY SKY/WX TMP DP RH WIND PRES REMARKS Boston CLOUDY 72 52 49 W9 29.86S Worcester CLEAR 63 51 65 W10 29.91S Westfield CLEAR 64 56 75 W5 N/A Provincetown MOCLDY 67 56 67 W9 29.88R Nantucket PTCLDY 63 60 90 W3 29.89R $$ ANZ330-335-338-340-345-350-353-355-250900- COASTAL MARINE OBSERVATIONS STATION/POSITION TIME SKY/WX TEMP WIND PRES VSBY WAVE AIR SEA DIR/SP/G HT/PER (UTC) (F) (DEG/KT/KT) (MB) (MI) (FT/S) NY HARB ENTRANCE 0650 69 67 280/ 4/ 6 1013.2 3/ 8 20 S FIRE ISLAND 0750 69 67 300/ 6/ 6 1012.5 4/ 8 GREAT SOUTH BAY 0730 72 76 340/ 6/ 6 N/A 23 SSW MONTAUK P 0650 67 64 1013.0 6/ 8 15 E BARNEGAT LI 0730 64 N/A 4/ 8 HUDSON CANYON 0650 69 66 220/ 10/ 12 1013.1 5/ 8 KINGS POINT 0730 70 65 50/ 2/ 4 1013.1 EXECUTION ROCKS 0745 70 320/ 2/ 4 N/A CENTRAL LI SOUND 0745 70 240/ 4/ 4 N/A 1 EASTERN LI SOUND NOT AVBL ROBBINS REEF 0730 340/ 7/ 9 1013.8 $$ >>>>>>>>>>>>>>>>>>>>>>>>>>>> KEY <<<<<<<<<<<<<<<<<<<<<<<<<<< > < > SKY/WX - Sky Condition/Present Weather < > TMP - Temperature in Fahrenheit < > DP - Dew Point in Fahrenheit < > RH - Relative Humidity in Percent < > WIND - Direction (from) and Speed in MPH < > PRES - Mean Sea Level Pressure (inches of Hg) < > WCI - Wind Chill Index < > VSB - VISIBILITY IN MILES < > HX - HEAT INDEX < > TC - TEMPERATURE IN CELSIUS < > VRB - VARIABLE WIND DIRECTION < > < >>>>>>>>>>>>>>>>>>>>>>>>>>>> KEY <<<<<<<<<<<<<<<<<<<<<<<<<<<

USA.gov is the U.S. government's official web portal to all federal, state and local government web resources and services.